Location: Lake Arresoe
(56.0000°N, 12.5000°E)
Time: 11:13:56
(UTC+02:00)

Resurs 1-4 Rocket - Pass Details

Date: 14 August 2020
Orbit: 799 x 815 km, 98.6° (Epoch: 23 September)

Event Time Altitude Azimuth Distance (km) Brightness Sun altitude
Rises 03:54:59 0° 14° (NNE) 3,335 6.6 -12.2°
Reaches altitude 10° 03:57:24 10° 8° (N) 2,398 5.5 -11.9°
Maximum altitude 04:02:26 46° 297° (WNW) 1,069 2.6 -11.5°
Enters shadow 04:06:35 15° 229° (SW) 2,063 3.6 -11.1°
